This demonstration page uses our WeatherBlox Daily Observations layout. Learn more.

Hourly Observations for January 12, 2017

Temp ( °F °C ) Dew Point ( °F °C ) Humidity (%) Winds ( mph kmh ) Pressure ( in mb ) Visibility ( mi km ) Precip ( " mm )
12:54 am 00:54 Clear 12 -11.1 5 -15 73 73 N 13 20 30.06 1018 10 16.0934 0 0
1:54 am 01:54 Partly Cloudy 12 -11.1 5 -15 73 73 N 10 17 30.1 1019 10 16.0934 0 0
2:54 am 02:54 Mostly Cloudy 12 -11.1 6 -14.4 77 77 N 13 20 30.14 1021 10 16.0934 0 0
3:54 am 03:54 Cloudy 12 -11.1 5 -15 73 73 N 13 20 30.16 1021 10 16.0934 0 0
4:54 am 04:54 Clear 11 -11.7 5 -15 77 77 N 8 13 30.17 1022 10 16.0934 0 0
5:54 am 05:54 Clear 11 -11.7 5 -15 77 77 N 9 15 30.21 1023 10 16.0934 0 0
6:54 am 06:54 Clear 10 -12.2 4 -15.6 76 76 NNW 10 17 30.24 1024 10 16.0934 0 0
7:54 am 07:54 Sunny 10 -12.2 4 -15.6 76 76 NNW 12 19 30.28 1025 10 16.0934 0 0
8:54 am 08:54 Sunny 12 -11.1 4 -15.6 70 70 NNW 10 17 30.33 1027 10 16.0934 0 0
9:54 am 09:54 Sunny 15 -9.4 4 -15.6 61 61 NNW 13 20 30.38 1029 10 16.0934 0 0
10:54 am 10:54 Cloudy 17 -8.3 2 -16.7 51 51 NNW 13 20 30.42 1030 10 16.0934 0 0
11:54 am 11:54 Cloudy 18 -7.8 1 -17.2 47 47 NNW 13 20 30.44 1031 10 16.0934 0 0
12:54 pm 12:54 Cloudy 21 -6.1 1 -17.2 41 41 NNW 9 15 30.43 1031 10 16.0934 0 0
1:54 pm 13:54 Mostly Sunny 21 -6.1 4 -15.6 47 47 N 12 19 30.42 1030 10 16.0934 0 0
2:54 pm 14:54 Sunny 23 -5 6 -14.4 48 48 N 12 19 30.44 1031 10 16.0934 0 0
3:54 pm 15:54 Sunny 23 -5 6 -14.4 48 48 N 6 9 30.49 1032 10 16.0934 0 0
4:54 pm 16:54 Sunny 22 -5.6 7 -13.9 52 52 N 8 13 30.51 1033 10 16.0934 0 0
5:54 pm 17:54 Clear 17 -8.3 7 -13.9 64 64 N 7 11 30.54 1034 10 16.0934 0 0
6:54 pm 18:54 Clear 16 -8.9 7 -13.9 67 67 N 3 6 30.57 1035 10 16.0934 0 0
7:54 pm 19:54 Clear 18 -7.8 9 -12.8 68 68 Calm 30.61 1037 10 16.0934 0 0
8:54 pm 20:54 Mostly Cloudy 19 -7.2 10 -12.2 68 68 NNE 6 9 30.59 1036 10 16.0934 0 0
9:54 pm 21:54 Clear 19 -7.2 11 -11.7 71 71 NNE 3 6 30.58 1036 10 16.0934 0 0
10:54 pm 22:54 Clear 19 -7.2 11 -11.7 71 71 N 6 9 30.62 1037 10 16.0934 0 0
11:54 pm 23:54 Clear 19 -7.2 10 -12.2 68 68 NNE 12 19 30.63 1037 10 16.0934 0 0

Powered by AerisWeather